�������l�o���
Date,Time,MP-1(��Sv/h),MP-2(��Sv/h),MP-3(��Sv/h),MP-4(��Sv/h),MP-5(��Sv/h),MP-6(��Sv/h),MP-7(��Sv/h),MP-8(��Sv/h),����,����(m/s),���J
2023/07/08,00:00,0.539,0.825,0.498,0.989,0.728,0.329,0.574,0.537,��쓌,3.0,��
2023/07/08,00:10,0.539,0.824,0.499,0.989,0.729,0.329,0.573,0.538,��,3.8,��
2023/07/08,00:20,0.540,0.826,0.499,0.989,0.726,0.328,0.573,0.538,��,5.0,��
2023/07/08,00:30,0.540,0.824,0.499,0.989,0.728,0.329,0.574,0.537,��,4.9,��
2023/07/08,00:40,0.539,0.823,0.500,0.989,0.729,0.329,0.573,0.537,��,3.6,��
2023/07/08,00:50,0.541,0.824,0.499,0.989,0.726,0.328,0.573,0.537,��,4.0,��
2023/07/08,01:00,0.539,0.825,0.499,0.990,0.728,0.329,0.574,0.537,��쐼,2.6,��
2023/07/08,01:10,0.538,0.825,0.499,0.993,0.730,0.329,0.572,0.539,�쐼,2.2,��
2023/07/08,01:20,0.541,0.827,0.499,0.990,0.728,0.330,0.574,0.538,��쐼,3.8,��
2023/07/08,01:30,0.539,0.825,0.499,0.991,0.728,0.331,0.573,0.537,��쐼,3.3,��
2023/07/08,01:40,0.540,0.825,0.500,0.987,0.731,0.329,0.574,0.537,��,3.3,��
2023/07/08,01:50,0.539,0.825,0.498,0.990,0.728,0.329,0.573,0.538,��,4.2,��
2023/07/08,02:00,0.541,0.823,0.499,0.991,0.728,0.331,0.574,0.538,��,3.8,��
2023/07/08,02:10,0.539,0.825,0.500,0.990,0.729,0.330,0.573,0.540,��,4.6,��
2023/07/08,02:20,0.540,0.824,0.500,0.991,0.728,0.331,0.573,0.538,��,5.4,��
2023/07/08,02:30,0.539,0.825,0.499,0.990,0.729,0.329,0.574,0.539,��,3.4,��
2023/07/08,02:40,0.537,0.826,0.498,0.993,0.727,0.331,0.572,0.539,��,3.2,��
2023/07/08,02:50,0.539,0.825,0.498,0.990,0.727,0.330,0.574,0.539,��,2.0,��
2023/07/08,03:00,0.540,0.825,0.497,0.990,0.728,0.329,0.576,0.537,��,2.0,��
2023/07/08,03:10,0.540,0.824,0.500,0.990,0.728,0.328,0.574,0.537,�쐼,2.0,��
2023/07/08,03:20,0.540,0.825,0.499,0.991,0.728,0.330,0.574,0.538,�쐼,1.7,��
2023/07/08,03:30,0.539,0.824,0.499,0.990,0.727,0.329,0.573,0.537,��쐼,3.8,��
2023/07/08,03:40,0.539,0.823,0.500,0.991,0.728,0.328,0.575,0.538,��,3.8,��
2023/07/08,03:50,0.540,0.825,0.500,0.990,0.728,0.330,0.575,0.538,��,3.8,��
2023/07/08,04:00,0.539,0.825,0.499,0.992,0.729,0.329,0.574,0.537,��쓌,3.3,��
2023/07/08,04:10,0.541,0.823,0.498,0.992,0.729,0.327,0.573,0.537,��,4.5,��
2023/07/08,04:20,0.539,0.825,0.499,0.989,0.730,0.327,0.575,0.538,��,5.9,��
2023/07/08,04:30,0.540,0.826,0.499,0.989,0.729,0.328,0.574,0.539,��쐼,3.8,��
2023/07/08,04:40,0.541,0.826,0.502,0.990,0.730,0.329,0.575,0.537,��쐼,3.8,��
2023/07/08,04:50,0.541,0.825,0.500,0.991,0.728,0.330,0.573,0.538,�쐼,2.6,��
2023/07/08,05:00,0.540,0.827,0.500,0.992,0.729,0.331,0.574,0.539,��쐼,2.3,��
2023/07/08,05:10,0.541,0.825,0.500,0.988,0.728,0.329,0.576,0.538,��,3.7,��
2023/07/08,05:20,0.540,0.826,0.500,0.991,0.729,0.329,0.574,0.537,��쐼,3.7,��
2023/07/08,05:30,0.540,0.826,0.501,0.990,0.729,0.329,0.575,0.538,�쐼,3.0,��
2023/07/08,05:40,0.542,0.827,0.501,0.990,0.730,0.330,0.574,0.538,��,2.0,�L
2023/07/08,05:50,0.541,0.828,0.501,0.993,0.730,0.330,0.577,0.539,�k,0.9,�L
2023/07/08,06:00,0.541,0.829,0.502,0.992,0.730,0.331,0.576,0.538,��,2.0,�L
2023/07/08,06:10,0.540,0.829,0.501,0.992,0.730,0.331,0.577,0.538,���k��,1.5,�L
2023/07/08,06:20,0.542,0.828,0.503,0.992,0.732,0.331,0.576,0.538,�k��,1.2,�L
2023/07/08,06:30,0.541,0.826,0.500,0.993,0.729,0.332,0.576,0.540,��,0.9,�L
2023/07/08,06:40,0.541,0.828,0.502,0.994,0.729,0.330,0.576,0.539,��쐼,1.2,�L
2023/07/08,06:50,0.542,0.827,0.503,0.990,0.728,0.332,0.575,0.538,��쐼,1.2,�L
2023/07/08,07:00,0.544,0.827,0.505,0.995,0.731,0.331,0.576,0.539,��쐼,1.7,�L
2023/07/08,07:10,0.541,0.827,0.502,0.991,0.730,0.330,0.576,0.539,��,2.2,�L
2023/07/08,07:20,0.540,0.827,0.502,0.992,0.728,0.331,0.574,0.540,��,2.6,�L
2023/07/08,07:30,0.541,0.826,0.502,0.992,0.732,0.330,0.576,0.539,��,3.0,�L
2023/07/08,07:40,0.542,0.825,0.500,0.992,0.731,0.329,0.577,0.539,��쓌,2.6,�L
2023/07/08,07:50,0.541,0.824,0.502,0.990,0.730,0.331,0.576,0.540,�쓌,2.0,��
2023/07/08,08:00,0.540,0.825,0.501,0.992,0.728,0.330,0.575,0.538,��쓌,3.7,��
2023/07/08,08:10,0.539,0.824,0.498,0.992,0.729,0.330,0.575,0.539,��,4.6,��
2023/07/08,08:20,0.539,0.823,0.500,0.991,0.730,0.330,0.576,0.538,��,3.4,�L
2023/07/08,08:30,0.538,0.824,0.500,0.990,0.728,0.330,0.575,0.539,��쐼,2.9,��
2023/07/08,08:40,0.540,0.821,0.500,0.992,0.730,0.330,0.574,0.540,��,1.7,��
2023/07/08,08:50,0.540,0.822,0.502,0.991,0.729,0.330,0.577,0.538,�쐼,1.7,�L
2023/07/08,09:00,0.541,0.823,0.499,0.992,0.730,0.330,0.576,0.540,��,1.4,�L
2023/07/08,09:10,0.541,0.824,0.503,0.990,0.730,0.329,0.576,0.538,��,2.5,�L
2023/07/08,09:20,0.541,0.825,0.501,0.991,0.729,0.329,0.575,0.539,��,2.6,�L
2023/07/08,09:30,0.539,0.820,0.500,0.992,0.730,0.328,0.574,0.538,��,3.2,�L
2023/07/08,09:40,0.539,0.824,0.500,0.991,0.728,0.330,0.575,0.539,��쐼,2.8,�L
2023/07/08,09:50,0.537,0.825,0.500,0.991,0.727,0.331,0.576,0.539,��,1.4,��
2023/07/08,10:00,0.539,0.822,0.498,0.991,0.727,0.329,0.574,0.540,-,CALM,��
2023/07/08,10:10,0.538,0.822,0.500,0.989,0.727,0.328,0.575,0.538,�k��,0.8,��
2023/07/08,10:20,0.539,0.821,0.499,0.990,0.729,0.330,0.576,0.539,�k�k��,2.2,��
2023/07/08,10:30,0.539,0.822,0.499,0.989,0.728,0.329,0.575,0.538,�k,2.3,�L
2023/07/08,10:40,0.537,0.822,0.499,0.991,0.729,0.329,0.575,0.538,�k�k��,2.0,�L
2023/07/08,10:50,0.540,0.825,0.497,0.990,0.729,0.331,0.574,0.539,���쓌,2.8,��
2023/07/08,11:00,0.537,0.821,0.500,0.992,0.727,0.327,0.574,0.538,��,1.7,��
2023/07/08,11:10,0.539,0.823,0.500,0.991,0.728,0.328,0.575,0.539,��,2.0,��
2023/07/08,11:20,0.539,0.824,0.498,0.992,0.726,0.328,0.575,0.539,�k�k��,3.8,��
2023/07/08,11:30,0.539,0.822,0.499,0.991,0.729,0.328,0.575,0.538,�k�k��,7.7,��
2023/07/08,11:40,0.539,0.821,0.499,0.991,0.727,0.327,0.575,0.539,�k�k��,6.9,��
2023/07/08,11:50,0.538,0.821,0.499,0.989,0.726,0.327,0.576,0.538,�k,6.3,��
2023/07/08,12:00,0.537,0.822,0.497,0.990,0.728,0.326,0.575,0.537,�k,7.2,��
2023/07/08,12:10,0.538,0.823,0.497,0.990,0.729,0.327,0.574,0.536,�k,6.4,��
2023/07/08,12:20,0.535,0.822,0.498,0.991,0.729,0.327,0.574,0.537,�k,4.9,��
2023/07/08,12:30,0.538,0.821,0.498,0.989,0.727,0.326,0.575,0.537,�k,6.1,��
2023/07/08,12:40,0.537,0.824,0.497,0.991,0.726,0.328,0.573,0.537,�k,3.6,��
2023/07/08,12:50,0.538,0.820,0.496,0.990,0.726,0.326,0.574,0.538,�k,4.2,��
2023/07/08,13:00,0.538,0.822,0.497,0.989,0.726,0.327,0.576,0.536,�k�k��,4.8,��
2023/07/08,13:10,0.538,0.823,0.498,0.988,0.727,0.327,0.572,0.537,�k�k��,5.4,��
2023/07/08,13:20,0.535,0.822,0.496,0.991,0.725,0.326,0.575,0.537,�k�k��,4.7,��
2023/07/08,13:30,0.537,0.822,0.498,0.990,0.728,0.326,0.573,0.538,�k�k��,4.7,��
2023/07/08,13:40,0.537,0.823,0.497,0.988,0.728,0.327,0.573,0.539,�k,4.7,��
2023/07/08,13:50,0.538,0.822,0.497,0.989,0.725,0.328,0.574,0.537,�k,6.4,��
2023/07/08,14:00,0.538,0.824,0.498,0.988,0.727,0.328,0.573,0.537,�k,6.4,��
2023/07/08,14:10,0.536,0.823,0.498,0.989,0.727,0.325,0.573,0.539,�k,6.7,��
2023/07/08,14:20,0.536,0.823,0.496,0.990,0.727,0.327,0.573,0.536,�k,6.8,��
2023/07/08,14:30,0.535,0.821,0.496,0.992,0.728,0.325,0.572,0.537,�k,5.5,��
2023/07/08,14:40,0.537,0.821,0.496,0.990,0.728,0.328,0.573,0.537,�k,6.8,��
2023/07/08,14:50,0.535,0.821,0.495,0.989,0.727,0.328,0.573,0.536,�k,6.6,��
2023/07/08,15:00,0.538,0.822,0.496,0.990,0.727,0.325,0.571,0.537,�k,7.0,��
2023/07/08,15:10,0.537,0.822,0.497,0.990,0.727,0.327,0.570,0.538,�k,7.6,��
2023/07/08,15:20,0.537,0.823,0.496,0.991,0.727,0.327,0.573,0.537,�k,5.8,��
2023/07/08,15:30,0.537,0.823,0.496,0.991,0.727,0.328,0.573,0.537,�k,5.1,��
2023/07/08,15:40,0.537,0.823,0.497,0.991,0.728,0.325,0.574,0.538,�k�k��,6.4,��
2023/07/08,15:50,0.535,0.822,0.496,0.991,0.728,0.325,0.572,0.537,�k,6.3,��
2023/07/08,16:00,0.537,0.823,0.498,0.991,0.725,0.327,0.574,0.539,�k,5.5,��
2023/07/08,16:10,0.536,0.823,0.496,0.991,0.727,0.327,0.572,0.537,�k,6.2,��
2023/07/08,16:20,0.536,0.821,0.497,0.990,0.726,0.326,0.573,0.537,�k,4.8,��
2023/07/08,16:30,0.536,0.822,0.497,0.991,0.728,0.325,0.572,0.539,�k,4.6,��
2023/07/08,16:40,0.538,0.822,0.496,0.991,0.725,0.327,0.571,0.538,�k,4.6,��
2023/07/08,16:50,0.537,0.822,0.497,0.991,0.728,0.327,0.572,0.537,�k,5.1,��
2023/07/08,17:00,0.536,0.821,0.496,0.992,0.726,0.325,0.571,0.539,�k,4.1,��
2023/07/08,17:10,0.535,0.822,0.497,0.991,0.727,0.326,0.573,0.536,�k,3.9,��
2023/07/08,17:20,0.537,0.826,0.497,0.990,0.728,0.326,0.572,0.538,�k,4.0,��
2023/07/08,17:30,0.537,0.825,0.496,0.991,0.727,0.327,0.573,0.539,�k,3.5,��
2023/07/08,17:40,0.537,0.825,0.496,0.993,0.728,0.326,0.572,0.538,�k,3.6,��
2023/07/08,17:50,0.538,0.824,0.499,0.991,0.728,0.326,0.572,0.537,�k,3.2,��
2023/07/08,18:00,0.538,0.823,0.496,0.990,0.727,0.327,0.573,0.538,�k,2.5,��
2023/07/08,18:10,0.538,0.825,0.496,0.990,0.729,0.326,0.573,0.537,�k,3.5,��
2023/07/08,18:20,0.536,0.826,0.501,0.991,0.730,0.327,0.572,0.538,�k,3.9,��
2023/07/08,18:30,0.539,0.825,0.499,0.991,0.730,0.328,0.572,0.539,�k,3.0,��
2023/07/08,18:40,0.539,0.824,0.498,0.991,0.728,0.326,0.574,0.538,�k,3.4,��
2023/07/08,18:50,0.537,0.824,0.498,0.992,0.728,0.327,0.574,0.538,�k,3.1,��
2023/07/08,19:00,0.537,0.825,0.498,0.992,0.729,0.326,0.573,0.538,�k,3.1,��
2023/07/08,19:10,0.538,0.824,0.497,0.992,0.728,0.327,0.574,0.539,�k,3.5,��
2023/07/08,19:20,0.538,0.824,0.497,0.992,0.728,0.327,0.572,0.538,�k,3.2,��
2023/07/08,19:30,0.538,0.826,0.497,0.994,0.728,0.327,0.573,0.538,�k,3.5,��
2023/07/08,19:40,0.538,0.824,0.499,0.993,0.726,0.327,0.574,0.539,�k,3.4,��
2023/07/08,19:50,0.538,0.826,0.496,0.993,0.728,0.327,0.573,0.538,�k�k��,2.3,��
2023/07/08,20:00,0.540,0.823,0.498,0.991,0.729,0.327,0.572,0.539,�k,2.2,��
2023/07/08,20:10,0.539,0.824,0.497,0.992,0.729,0.327,0.572,0.539,�k,1.2,��
2023/07/08,20:20,0.538,0.825,0.497,0.992,0.728,0.326,0.572,0.538,-,CALM,��
2023/07/08,20:30,0.538,0.827,0.497,0.992,0.726,0.328,0.573,0.540,�k,0.9,��
2023/07/08,20:40,0.538,0.826,0.497,0.991,0.728,0.326,0.573,0.537,�k��,0.8,��
2023/07/08,20:50,0.540,0.824,0.498,0.991,0.728,0.328,0.574,0.539,�k,1.1,��
2023/07/08,21:00,0.539,0.823,0.498,0.990,0.727,0.328,0.573,0.539,�k��,0.8,��
2023/07/08,21:10,0.538,0.826,0.498,0.991,0.728,0.327,0.573,0.537,�k�k��,0.6,�L
2023/07/08,21:20,0.538,0.825,0.498,0.992,0.728,0.327,0.574,0.538,�k,1.2,�L
2023/07/08,21:30,0.541,0.825,0.499,0.990,0.727,0.328,0.573,0.538,�k�k��,0.9,�L
2023/07/08,21:40,0.540,0.825,0.500,0.994,0.731,0.329,0.575,0.539,-,CALM,�L
2023/07/08,21:50,0.540,0.829,0.499,0.994,0.732,0.327,0.573,0.538,-,CALM,�L
2023/07/08,22:00,0.542,0.826,0.500,0.995,0.731,0.329,0.574,0.540,�k�k��,0.6,�L
2023/07/08,22:10,0.542,0.828,0.501,0.995,0.731,0.329,0.575,0.539,-,CALM,�L
2023/07/08,22:20,0.540,0.824,0.501,0.994,0.728,0.331,0.573,0.540,��쓌,0.9,�L
2023/07/08,22:30,0.539,0.825,0.499,0.994,0.729,0.330,0.575,0.540,�쓌,0.6,�L
2023/07/08,22:40,0.539,0.825,0.499,0.993,0.728,0.329,0.574,0.538,-,CALM,�L
2023/07/08,22:50,0.539,0.822,0.500,0.992,0.727,0.328,0.574,0.539,�쐼,1.1,��
2023/07/08,23:00,0.537,0.824,0.499,0.993,0.728,0.329,0.573,0.539,-,CALM,�L
2023/07/08,23:10,0.540,0.824,0.499,0.992,0.727,0.328,0.575,0.540,-,CALM,�L
2023/07/08,23:20,0.538,0.824,0.499,0.991,0.728,0.328,0.574,0.538,��,1.5,�L
2023/07/08,23:30,0.539,0.822,0.499,0.991,0.727,0.328,0.575,0.539,��,2.2,�L
2023/07/08,23:40,0.539,0.820,0.498,0.991,0.727,0.327,0.574,0.540,��,1.2,�L
2023/07/08,23:50,0.539,0.824,0.498,0.993,0.726,0.328,0.573,0.538,��,1.7,�L
